Location: Azul
(36.7830°S, 59.8500°W)
Time: 18:43:13
(UTC-03:00)

AO-109 - Pass Details

Date: 30 October 2021
Orbit: 474 x 522 km, 60.7° (Epoch: 06 December)

Event Time Altitude Azimuth Distance (km) Brightness Sun altitude
Rises 22:30:42 0° 292° (WNW) 2,609 ? -30.3°
Enters shadow 22:30:47 - 291° (WNW) 2,576 ? -30.3°
Exits shadow 22:34:25 16° 261° (W) 1,427 ? -30.8°
Maximum altitude 22:36:17 21° 224° (SW) 1,203 ? -31.0°
Drops below altitude 10° 22:39:23 10° 173° (S) 1,776 ? -31.3°
Sets 22:42:02 0° 156° (SSE) 2,678 ? -31.6°
